• In Russia
  • List of Countries
  • For 7 days
  • Water Temperature
  • Satellite Maps
  • Weather Map
  • Weather Widgets
  • user-avatar
    Login

    Hourly Weather Salzburg

    Today, 10 December, Monday

    Time Temperature Precipitation Wind Pressure Humidity
    00:00 -4°C° 1.8 mm 3 mps 619 mmHg 94%
    01:00 -5°C° 0 mm 3 mps 619 mmHg 94%
    02:00 -5°C° 1.4 mm 3 mps 620 mmHg 93%
    03:00 -5°C° 1.4 mm 3 mps 620 mmHg 93%
    04:00 -5°C° 1.4 mm 4 mps 620 mmHg 92%
    05:00 -5°C° 1.2 mm 4 mps 621 mmHg 92%
    06:00 -7°C° 1.2 mm 4 mps 621 mmHg 92%
    07:00 -7°C° 1.2 mm 4 mps 621 mmHg 92%
    08:00 -7°C° 1.4 mm 4 mps 621 mmHg 91%
    09:00 -7°C° 1.4 mm 4 mps 622 mmHg 91%
    10:00 -7°C° 1.4 mm 4 mps 622 mmHg 90%
    11:00 -7°C° 1.1 mm 4 mps 622 mmHg 90%
    12:00 -8°C° 1.1 mm 4 mps 622 mmHg 89%
    13:00 -8°C° 1.1 mm 4 mps 622 mmHg 89%
    14:00 -8°C° 0.6 mm 4 mps 622 mmHg 89%
    15:00 -7°C° 0.6 mm 3 mps 622 mmHg 90%
    16:00 -7°C° 0.6 mm 3 mps 622 mmHg 91%
    17:00 -8°C° 0.7 mm 3 mps 622 mmHg 92%
    18:00 -8°C° 0.7 mm 3 mps 622 mmHg 93%
    19:00 -8°C° 0.7 mm 3 mps 622 mmHg 94%
    20:00 -7°C° 1.6 mm 2 mps 622 mmHg 94%
    21:00 -7°C° 1.6 mm 2 mps 622 mmHg 95%
    22:00 -7°C° 1.6 mm 2 mps 622 mmHg 95%
    23:00 -7°C° 1.3 mm 2 mps 622 mmHg 95%

    Tomorrow, 11 December, Tuesday

    Time Temperature Precipitation Wind Pressure Humidity
    00:00 -7°C° 1.3 mm 2 mps 622 mmHg 95%
    01:00 -9°C° 1.3 mm 3 mps 622 mmHg 95%
    02:00 -9°C° 0.5 mm 3 mps 622 mmHg 95%
    03:00 -9°C° 0.5 mm 3 mps 622 mmHg 94%
    04:00 -10°C° 0.5 mm 3 mps 622 mmHg 94%
    05:00 -10°C° 0.6 mm 3 mps 622 mmHg 94%
    06:00 -10°C° 0.6 mm 3 mps 622 mmHg 94%
    07:00 -10°C° 0.6 mm 3 mps 622 mmHg 94%
    08:00 -10°C° 0.6 mm 3 mps 622 mmHg 93%
    09:00 -10°C° 0.6 mm 3 mps 623 mmHg 92%
    10:00 -9°C° 0.6 mm 3 mps 623 mmHg 91%
    11:00 -9°C° 0.6 mm 3 mps 623 mmHg 90%
    12:00 -9°C° 0.6 mm 3 mps 623 mmHg 89%
    13:00 -8°C° 0.6 mm 3 mps 623 mmHg 88%
    14:00 -9°C° 0.4 mm 3 mps 623 mmHg 90%
    15:00 -9°C° 0.4 mm 3 mps 622 mmHg 91%
    16:00 -9°C° 0.4 mm 3 mps 622 mmHg 92%
    17:00 -10°C° 0.3 mm 3 mps 622 mmHg 92%
    18:00 -10°C° 0.3 mm 3 mps 623 mmHg 92%
    19:00 -12°C° 0.3 mm 3 mps 623 mmHg 92%
    20:00 -12°C° 0.3 mm 3 mps 623 mmHg 92%
    21:00 -12°C° 0.3 mm 3 mps 622 mmHg 91%
    22:00 -13°C° 0.3 mm 3 mps 622 mmHg 91%
    23:00 -13°C° 0.2 mm 3 mps 622 mmHg 91%

    Day after tomorrow, 12 December, Wednesday

    Time Temperature Precipitation Wind Pressure Humidity
    00:00 -12°C° 0.2 mm 2 mps 622 mmHg 90%
    01:00 -13°C° 0.2 mm 2 mps 622 mmHg 89%
    02:00 -13°C° 0.2 mm 2 mps 622 mmHg 89%
    03:00 -13°C° 0.2 mm 2 mps 622 mmHg 88%
    04:00 -13°C° 0.2 mm 2 mps 622 mmHg 88%
    05:00 -13°C° 0.2 mm 2 mps 622 mmHg 88%
    06:00 -13°C° 0.2 mm 2 mps 622 mmHg 88%
    07:00 -13°C° 0.2 mm 2 mps 622 mmHg 88%
    08:00 -12°C° 0.2 mm 2 mps 622 mmHg 88%
    09:00 -10°C° 0.2 mm 2 mps 623 mmHg 88%
    10:00 -9°C° 0.2 mm 1 mps 623 mmHg 88%
    11:00 -8°C° 0.1 mm 1 mps 623 mmHg 87%
    12:00 -7°C° 0.1 mm 1 mps 623 mmHg 87%
    13:00 -6°C° 0.1 mm 1 mps 623 mmHg 86%
    14:00 -7°C° 0 mm 1 mps 622 mmHg 89%
    15:00 -8°C° 0 mm 0 mps 622 mmHg 92%
    16:00 -9°C° 0 mm 0 mps 621 mmHg 95%
    17:00 -10°C° 0 mm 0 mps 621 mmHg 94%
    18:00 -11°C° 0 mm 1 mps 621 mmHg 94%
    19:00 -12°C° 0 mm 1 mps 620 mmHg 94%
    20:00 -12°C° 0 mm 1 mps 620 mmHg 93%
    21:00 -13°C° 0 mm 1 mps 620 mmHg 92%
    22:00 -13°C° 0 mm 1 mps 620 mmHg 91%
    23:00 -14°C° 0 mm 1 mps 620 mmHg 90%

    13 December, Thursday

    Time Temperature Precipitation Wind Pressure Humidity
    00:00 -14°C° 0 mm 1 mps 620 mmHg 88%
    01:00 -14°C° 0 mm 1 mps 619 mmHg 87%
    02:00 -14°C° 0 mm 1 mps 619 mmHg 86%
    03:00 -14°C° 0 mm 1 mps 619 mmHg 86%
    04:00 -14°C° 0 mm 1 mps 619 mmHg 85%
    05:00 -15°C° 0 mm 1 mps 618 mmHg 84%
    06:00 -15°C° 0 mm 1 mps 618 mmHg 83%
    07:00 -15°C° 0 mm 1 mps 618 mmHg 82%
    08:00 -13°C° 0 mm 1 mps 618 mmHg 82%
    09:00 -12°C° 0 mm 1 mps 619 mmHg 81%
    10:00 -10°C° 0 mm 1 mps 620 mmHg 81%
    11:00 -9°C° 0 mm 1 mps 620 mmHg 81%
    12:00 -8°C° 0 mm 2 mps 620 mmHg 81%
    13:00 -7°C° 0 mm 2 mps 620 mmHg 81%
    14:00 -8°C° 0 mm 2 mps 619 mmHg 83%
    15:00 -9°C° 0 mm 2 mps 618 mmHg 86%
    16:00 -10°C° 0 mm 2 mps 618 mmHg 88%
    17:00 -12°C° 0 mm 2 mps 618 mmHg 87%
    18:00 -13°C° 0 mm 2 mps 618 mmHg 86%
    19:00 -13°C° 0 mm 2 mps 618 mmHg 85%
    20:00 -13°C° 0 mm 2 mps 618 mmHg 85%
    21:00 -13°C° 0 mm 2 mps 618 mmHg 84%
    22:00 -13°C° 0 mm 2 mps 618 mmHg 84%
    23:00 -13°C° 0 mm 2 mps 618 mmHg 83%

    14 December, Friday

    Time Temperature Precipitation Wind Pressure Humidity
    00:00 -13°C° 0 mm 2 mps 619 mmHg 83%
    01:00 -12°C° 0 mm 2 mps 619 mmHg 83%
    02:00 -10°C° 0 mm 1 mps 619 mmHg 83%
    03:00 -10°C° 0 mm 1 mps 619 mmHg 83%
    04:00 -9°C° 0 mm 1 mps 619 mmHg 83%
    05:00 -9°C° 0 mm 1 mps 620 mmHg 84%
    06:00 -8°C° 0 mm 1 mps 620 mmHg 84%
    07:00 -8°C° 0 mm 1 mps 621 mmHg 84%
    08:00 -7°C° 0 mm 1 mps 622 mmHg 85%
    09:00 -6°C° 0 mm 1 mps 622 mmHg 86%
    10:00 -4°C° 0 mm 1 mps 623 mmHg 86%
    11:00 -3°C° 0 mm 1 mps 623 mmHg 88%
    12:00 -2°C° 0 mm 1 mps 624 mmHg 90%
    13:00 -3°C° 0 mm 0 mps 624 mmHg 91%
    14:00 -3°C° 0.1 mm 0 mps 624 mmHg 92%
    15:00 -4°C° 0.1 mm 0 mps 624 mmHg 93%
    16:00 -3°C° 0.1 mm 1 mps 625 mmHg 94%
    17:00 -4°C° 0.1 mm 1 mps 625 mmHg 94%
    18:00 -4°C° 0.1 mm 1 mps 625 mmHg 94%
    19:00 -6°C° 0.1 mm 1 mps 626 mmHg 94%
    20:00 -6°C° 0 mm 1 mps 626 mmHg 92%
    21:00 -7°C° 0 mm 1 mps 626 mmHg 90%
    22:00 -7°C° 0 mm 1 mps 626 mmHg 88%
    23:00 -8°C° 0 mm 1 mps 626 mmHg 88%

    15 December, Saturday

    Time Temperature Precipitation Wind Pressure Humidity
    00:00 -8°C° 0 mm 1 mps 627 mmHg 87%
    01:00 -8°C° 0 mm 1 mps 627 mmHg 86%
    02:00 -9°C° 0 mm 1 mps 627 mmHg 86%
    03:00 -9°C° 0 mm 1 mps 627 mmHg 85%
    04:00 -9°C° 0 mm 1 mps 627 mmHg 85%
    05:00 -9°C° 0 mm 1 mps 627 mmHg 86%
    06:00 -9°C° 0 mm 1 mps 628 mmHg 86%
    07:00 -10°C° 0 mm 2 mps 628 mmHg 86%
    08:00 -8°C° 0 mm 1 mps 629 mmHg 87%
    09:00 -6°C° 0 mm 1 mps 629 mmHg 87%
    10:00 -4°C° 0 mm 1 mps 630 mmHg 87%
    11:00 -3°C° 0 mm 1 mps 630 mmHg 89%
    12:00 -3°C° 0 mm 0 mps 630 mmHg 91%
    13:00 -2°C° 0 mm 0 mps 630 mmHg 92%
    14:00 -3°C° 0 mm 0 mps 629 mmHg 91%
    15:00 -4°C° 0 mm 0 mps 629 mmHg 90%
    16:00 -5°C° 0 mm 0 mps 629 mmHg 88%
    17:00 -4°C° 0 mm 1 mps 629 mmHg 87%
    18:00 -6°C° 0 mm 1 mps 629 mmHg 85%
    19:00 -6°C° 0 mm 1 mps 629 mmHg 83%
    20:00 -7°C° 0 mm 1 mps 629 mmHg 81%
    21:00 -7°C° 0 mm 1 mps 629 mmHg 78%
    22:00 -7°C° 0 mm 1 mps 629 mmHg 76%
    23:00 -7°C° 0 mm 1 mps 629 mmHg 74%
    Show more